"Pseudo-MPEC" for C1J0A02

Created 2019 Dec 9 23:07:08 UT using Find_Orb

Click here for an explanation of pseudo-MPECs

 
 Astrometry: 
     C1J0A02  C2019 12 03.31712 03 45 33.09 +23 26 57.4    ~C38b 21.4 GVNEOCPG96
     C1J0A02  C2019 12 03.32281 03 45 32.63 +23 26 50.2    ~C38b 21.4 GVNEOCPG96
     C1J0A02  C2019 12 03.32849 03 45 32.16 +23 26 43.0    ~C38b 21.8 GVNEOCPG96
     C1J0A02  C2019 12 03.42501 03 45 24.97 +23 24 42.2    ~C3Cb 21.3 GVNEOCPG96
     C1J0A02  C2019 12 03.42646 03 45 24.84 +23 24 40.4    ~C3Cb 21.1 GVNEOCPG96
     C1J0A02  C2019 12 03.43309 03 45 24.36 +23 24 32.3    ~C3Cb 22.1 GVNEOCPG96
     C1J0A02  C2019 12 06.22235 03 42 10.86 +22 27 12.0    ~C66M 22.2 GVNEOCPI52
     C1J0A02  C2019 12 06.22846 03 42 10.40 +22 27 03.5    ~C66M 22.1 GVNEOCPI52
     C1J0A02  C2019 12 06.24068 03 42 09.55 +22 26 49.4    ~C66M 22.3 GVNEOCPI52

Station data:
(G96) Mt. Lemmon Survey  (N32.442754 W110.788720)  US/Arizona.  Observers T.
   A. Pruyne, B. M. Africano, E. J. Christensen, G. A. Farneth, D. C. Fuls,
   A. R. Gibbs, A. D. Grauer, H. Gröller, J. A. Johnson, R. A. Kowalski, S.
   M. Larson, G. J. Leonard, D. Rankin, R. L. Seaman, F. C. Shelly. 1.5-m
   reflector + 10K CCD.
(I52) Steward Observatory, Mt. Lemmon Station  (N32.442547 W110.788920)
   US/Arizona.  Observers T. A. Pruyne, B. M. Africano, E. J. Christensen, G.
   A. Farneth, D. C. Fuls, A. R. Gibbs, A. D. Grauer, H. Gröller, J. A.
   Johnson, R. A. Kowalski, S. M. Larson, G. J. Leonard, D. Rankin, R. L.
   Seaman, F. C. Shelly. 1.0-m reflector + CCD.

Orbital elements:  C1J0A02
   Perihelion 2020 Aug 16.337266 +/- 230 TT =  8:05:39 (JD 2459077.837266)
Epoch 2019 Dec  6.0 TT = JDT 2458823.5   Earth MOID: 0.8163   AutoNEOCP
M 260.38465232 +/- 110              (J2000 ecliptic)
n   0.39166634 +/- 0.0584           Peri.  279.72120 +/- 80
a   1.85008583 +/- 0.184            Node   250.04563 +/- 1.6
e   0.0367550 +/- 0.134             Incl.   19.34662 +/- 6
P   2.52/919.13d           H 20.5   G  0.15   U 10.8  SR
q 1.78208591 +/- 0.195    Q 1.91808575 +/- 0.563
From 9 observations 2019 Dec. 3-6; mean residual 0".27
Residuals in arcseconds: 
191203 G96  .50+  .09+    191203 G96  .11+  .07-    191206 I52  .18+  .39+    
191203 G96  .10+  .02-    191203 G96  .20-  .04-    191206 I52  .20-  .63-    
191203 G96  .46-  .14-    191203 G96  .06-  .19+    191206 I52  .02+  .24+    

Ephemerides (geocentric):
Date (UTC) HH   RA              Dec         delta   r     elong  mag " sig PA
---- -- -- --  -------------   -----------  ------ ------ -----  --- ---- ---
2019 12 09 23  03 38 13.624   +21 11 41.79  .90623 1.8621 159.9 22.3  123 121
2019 12 10 00  03 38 11.142   +21 10 51.99  .90637 1.8620 159.8 22.3  125 121
2019 12 10 01  03 38 08.665   +21 10 02.21  .90652 1.8620 159.8 22.3  127 121
2019 12 10 02  03 38 06.191   +21 09 12.44  .90666 1.8620 159.7 22.3  129 121
2019 12 10 03  03 38 03.721   +21 08 22.70  .90681 1.8620 159.7 22.3  131 121
2019 12 10 04  03 38 01.254   +21 07 32.97  .90695 1.8620 159.6 22.3  133 121
2019 12 10 05  03 37 58.792   +21 06 43.26  .90710 1.8619 159.6 22.3  135 121
2019 12 10 06  03 37 56.333   +21 05 53.58  .90724 1.8619 159.5 22.3  138 121
2019 12 10 07  03 37 53.878   +21 05 03.91  .90739 1.8619 159.5 22.3  140 121
2019 12 10 08  03 37 51.427   +21 04 14.26  .90754 1.8619 159.4 22.3  142 121
2019 12 10 09  03 37 48.979   +21 03 24.63  .90769 1.8619 159.3 22.3  144 121
2019 12 10 10  03 37 46.536   +21 02 35.02  .90783 1.8618 159.3 22.3  146 121
2019 12 10 11  03 37 44.096   +21 01 45.44  .90798 1.8618 159.2 22.3  149 121
2019 12 10 12  03 37 41.660   +21 00 55.87  .90813 1.8618 159.2 22.3  151 121
2019 12 10 13  03 37 39.228   +21 00 06.32  .90828 1.8618 159.1 22.3  153 121
2019 12 10 14  03 37 36.799   +20 59 16.79  .90843 1.8618 159.1 22.3  156 121
2019 12 10 15  03 37 34.375   +20 58 27.28  .90858 1.8618 159.0 22.3  158 121
2019 12 10 16  03 37 31.954   +20 57 37.79  .90873 1.8617 159.0 22.3  160 121
2019 12 10 17  03 37 29.537   +20 56 48.32  .90888 1.8617 158.9 22.3  163 121
2019 12 10 18  03 37 27.124   +20 55 58.88  .90903 1.8617 158.9 22.3  165 121
2019 12 10 19  03 37 24.715   +20 55 09.45  .90918 1.8617 158.8 22.3  167 121
2019 12 10 20  03 37 22.310   +20 54 20.04  .90934 1.8617 158.8 22.3  170 121
2019 12 10 21  03 37 19.908   +20 53 30.66  .90949 1.8616 158.7 22.3  172 120
2019 12 10 22  03 37 17.511   +20 52 41.29  .90964 1.8616 158.6 22.3  174 120
2019 12 10 23  03 37 15.117   +20 51 51.95  .90980 1.8616 158.6 22.3  177 120
2019 12 11 00  03 37 12.727   +20 51 02.63  .90995 1.8616 158.5 22.3  179 120
2019 12 11 01  03 37 10.341   +20 50 13.33  .91010 1.8616 158.5 22.3  182 120
2019 12 11 02  03 37 07.959   +20 49 24.05  .91026 1.8615 158.4 22.3  184 120
2019 12 11 03  03 37 05.580   +20 48 34.79  .91041 1.8615 158.4 22.3  187 120
2019 12 11 04  03 37 03.206   +20 47 45.55  .91057 1.8615 158.3 22.3  189 120
2019 12 11 05  03 37 00.835   +20 46 56.33  .91072 1.8615 158.3 22.3  192 120
2019 12 11 06  03 36 58.469   +20 46 07.14  .91088 1.8615 158.2 22.3  194 120
2019 12 11 07  03 36 56.106   +20 45 17.96  .91104 1.8615 158.2 22.3  197 120
2019 12 11 08  03 36 53.747   +20 44 28.81  .91120 1.8614 158.1 22.3  199 120
2019 12 11 09  03 36 51.392   +20 43 39.68  .91135 1.8614 158.1 22.3  202 120
2019 12 11 10  03 36 49.041   +20 42 50.57  .91151 1.8614 158.0 22.3  204 120
2019 12 11 11  03 36 46.694   +20 42 01.48  .91167 1.8614 158.0 22.3  207 120
2019 12 11 12  03 36 44.351   +20 41 12.42  .91183 1.8614 157.9 22.3  210 120
2019 12 11 13  03 36 42.012   +20 40 23.38  .91199 1.8613 157.8 22.3  212 120
2019 12 11 14  03 36 39.676   +20 39 34.36  .91215 1.8613 157.8 22.3  215 120
2019 12 11 15  03 36 37.345   +20 38 45.36  .91231 1.8613 157.7 22.3  218 120
2019 12 11 16  03 36 35.017   +20 37 56.38  .91247 1.8613 157.7 22.3  220 120
2019 12 11 17  03 36 32.694   +20 37 07.43  .91263 1.8613 157.6 22.3  223 120
2019 12 11 18  03 36 30.374   +20 36 18.50  .91279 1.8612 157.6 22.3  226 120
2019 12 11 19  03 36 28.058   +20 35 29.59  .91295 1.8612 157.5 22.3  228 120
2019 12 11 20  03 36 25.747   +20 34 40.70  .91311 1.8612 157.5 22.3  231 120
2019 12 11 21  03 36 23.439   +20 33 51.84  .91328 1.8612 157.4 22.3  234 120
2019 12 11 22  03 36 21.135   +20 33 03.00  .91344 1.8612 157.4 22.3  236 120